Location: Eppenbrunn
(49.1158°N, 7.5601°E)
Time: 23:36:22
(UTC+00:00)

STARLINK-1270 - Pass Details

Date: 09 April 2020
Orbit: 378 x 381 km, 53.0° (Epoch: 03 June)

Event Time Altitude Azimuth Distance (km) Brightness Sun altitude
Rises 19:51:03 0° 292° (WNW) 2,257 8.5 -15.5°
Reaches altitude 10° 19:53:12 10° 283° (WNW) 1,400 6.8 -15.8°
Maximum altitude 19:56:05 34° 216° (SW) 648 4.0 -16.2°
Enters shadow 19:56:53 29° 182° (S) 733 4.0 -16.3°
